20050119,000017,1298195,34.885231,-121.196045,14.939,33.056,3.693,6.696
20050119,000047,1298225,34.885298,-121.195958,14.943,33.055,3.676,6.754
20050119,000117,1298256,34.885396,-121.195840,14.942,33.055,3.745,6.860
20050119,000147,1298286,34.885535,-121.195665,14.941,33.058,3.833,6.935
20050119,000217,1298316,34.885703,-121.195488,14.939,33.058,3.727,6.946
20050119,000247,1298345,34.885880,-121.195285,14.937,33.059,3.658,7.040
20050119,000316,1298375,34.886058,-121.195107,14.928,33.063,3.658,6.733
20050119,000347,1298405,34.886221,-121.194927,14.921,33.063,3.572,7.010
20050119,000417,1298436,34.886361,-121.194760,14.913,33.061,3.623,6.943
20050119,000447,1298466,34.886498,-121.194607,14.914,33.058,3.538,6.820
20050119,000517,1298496,34.886615,-121.194448,14.910,33.059,3.606,7.003
20050119,000547,1298525,34.886755,-121.194320,14.920,33.052,3.606,6.462
20050119,000617,1298555,34.886868,-121.194175,14.914,33.057,3.676,7.366
20050119,000647,1298585,34.886978,-121.194007,14.918,33.055,3.606,7.499
20050119,000717,1298616,34.887096,-121.193895,14.916,33.056,3.606,6.984
20050119,000748,1298646,34.887206,-121.193752,14.917,33.055,3.641,6.684
20050119,000818,1298677,34.887311,-121.193608,14.917,33.056,3.658,6.598
20050119,000847,1298705,34.887431,-121.193505,14.914,33.060,3.676,7.272
20050119,000917,1298735,34.887543,-121.193368,14.920,33.054,3.658,6.779
20050119,000948,1298766,34.887673,-121.193252,14.922,33.055,3.658,7.645
20050119,001018,1298796,34.887786,-121.193085,14.931,33.049,3.693,8.028
20050119,001047,1298826,34.887908,-121.192942,14.929,33.056,3.676,7.065
20050119,001117,1298855,34.888040,-121.192793,14.925,33.059,3.727,6.467
20050119,001147,1298885,34.888160,-121.192637,14.920,33.060,3.693,6.621
20050119,001217,1298915,34.888303,-121.192483,14.912,33.062,3.693,8.013
20050119,001248,1298946,34.888441,-121.192318,14.913,33.055,3.711,7.933
20050119,001318,1298976,34.888588,-121.192158,14.914,33.055,3.727,6.781
20050119,001348,1299006,34.888733,-121.191993,14.920,33.054,3.850,7.544
20050119,001418,1299037,34.888861,-121.191828,14.920,33.053,3.745,8.389
20050119,001448,1299067,34.888986,-121.191665,14.922,33.051,3.727,8.038
20050119,001518,1299096,34.889123,-121.191535,14.925,33.053,3.745,6.974
20050119,001548,1299126,34.889261,-121.191377,14.921,33.057,3.815,7.176
20050119,001618,1299156,34.889401,-121.191218,14.918,33.055,3.797,7.200
20050119,001648,1299187,34.889551,-121.191077,14.912,33.057,3.762,7.520
20050119,001718,1299217,34.889710,-121.190920,14.905,33.059,3.762,8.272
20050119,001749,1299247,34.889855,-121.190760,14.900,33.059,3.797,7.790
20050119,001818,1299276,34.890006,-121.190595,14.892,33.059,3.833,6.857
20050119,001848,1299306,34.890161,-121.190443,14.888,33.058,3.885,7.203
20050119,001919,1299337,34.890331,-121.190357,14.877,33.064,3.903,8.128
20050119,001948,1299367,34.890503,-121.190268,14.858,33.067,3.938,8.683
20050119,002019,1299397,34.890683,-121.190200,14.847,33.063,3.956,8.778
20050119,002048,1299426,34.890870,-121.190118,14.843,33.058,3.991,8.417
20050119,002118,1299456,34.891091,-121.190013,14.845,33.055,3.920,7.601
20050119,002149,1299488,34.891365,-121.189912,14.866,33.041,3.815,7.901
20050119,002218,1299517,34.891651,-121.189765,14.887,33.040,3.850,8.428
20050119,002249,1299547,34.891971,-121.189647,14.872,33.058,3.903,8.595
20050119,002318,1299577,34.892286,-121.189495,14.864,33.057,3.920,8.237
20050119,002349,1299608,34.892583,-121.189325,14.868,33.054,3.974,7.980
20050119,002418,1299636,34.892826,-121.189177,14.876,33.050,3.938,8.521
20050119,002449,1299667,34.893065,-121.189038,14.873,33.048,3.991,8.014
20050119,002519,1299697,34.893291,-121.188892,14.893,33.043,3.885,7.652
20050119,002549,1299727,34.893528,-121.188760,14.899,33.046,3.903,7.433
20050119,002618,1299757,34.893745,-121.188630,14.902,33.050,3.867,8.164
20050119,002648,1299786,34.893970,-121.188518,14.900,33.053,3.885,7.529
20050119,002719,1299818,34.894163,-121.188383,14.910,33.044,3.762,7.809
20050119,002749,1299847,34.894311,-121.188295,14.898,33.055,3.903,7.937
20050119,002819,1299877,34.894430,-121.188230,14.900,33.051,3.885,8.375
20050119,002849,1299907,34.894553,-121.188145,14.914,33.045,3.850,7.967
20050119,002918,1299936,34.894700,-121.188053,14.911,33.051,3.833,7.098
20050119,002949,1299968,34.894875,-121.187917,14.909,33.052,3.833,6.568
20050119,003019,1299998,34.895075,-121.187788,14.913,33.048,3.711,7.381
20050119,003049,1300027,34.895271,-121.187667,14.917,33.048,3.780,7.019
20050119,003119,1300057,34.895436,-121.187563,14.899,33.062,3.920,7.764
20050119,003150,1300088,34.895603,-121.187480,14.897,33.055,3.920,7.704
20050119,003219,1300118,34.895760,-121.187352,14.902,33.052,3.885,7.123
20050119,003249,1300148,34.895950,-121.187240,14.909,33.045,3.833,7.304
20050119,003320,1300179,34.896135,-121.187098,14.908,33.051,3.885,7.932
20050119,003350,1300209,34.896308,-121.187015,14.889,33.063,3.903,7.974
20050119,003419,1300237,34.896455,-121.186928,14.898,33.049,3.885,7.657
20050119,003450,1300268,34.896623,-121.186818,14.877,33.063,3.991,7.822
20050119,003520,1300298,34.896791,-121.186695,14.877,33.054,3.991,6.805
20050119,003550,1300328,34.896990,-121.186582,14.898,33.043,3.885,7.203
20050119,003619,1300357,34.897175,-121.186462,14.897,33.051,3.867,7.424
20050119,003649,1300387,34.897371,-121.186357,14.898,33.046,3.903,7.562
20050119,003719,1300417,34.897533,-121.186245,14.900,33.049,3.920,7.676
20050119,003750,1300448,34.897711,-121.186118,14.899,33.050,3.956,7.588
20050119,003820,1300478,34.897905,-121.185990,14.890,33.056,3.938,6.717
20050119,003849,1300508,34.898081,-121.185857,14.897,33.048,3.867,7.431
20050119,003920,1300539,34.898300,-121.185735,14.900,33.050,4.026,7.804
20050119,003950,1300569,34.898491,-121.185585,14.902,33.049,3.903,7.810
20050119,004020,1300598,34.898683,-121.185462,14.903,33.051,4.026,7.517
20050119,004050,1300628,34.898838,-121.185340,14.901,33.051,3.920,7.867
20050119,004120,1300658,34.899008,-121.185228,14.903,33.050,3.974,7.644
20050119,004150,1300689,34.899191,-121.185095,14.908,33.047,3.903,6.676
20050119,004219,1300717,34.899380,-121.184968,14.913,33.044,3.920,7.156
20050119,004250,1300749,34.899575,-121.184822,14.910,33.052,3.938,6.988
20050119,004320,1300778,34.899726,-121.184740,14.907,33.050,3.974,7.025
20050119,004350,1300808,34.899923,-121.184612,14.908,33.048,3.903,6.891
20050119,004419,1300838,34.900161,-121.184442,14.905,33.053,3.956,7.096
20050119,004450,1300869,34.900473,-121.184152,14.905,33.049,3.885,6.862
20050119,004520,1300899,34.900705,-121.183700,14.908,33.048,3.991,7.828
20050119,004550,1300928,34.900953,-121.183178,14.908,33.050,4.008,7.878
20050119,004620,1300958,34.901215,-121.182613,14.890,33.061,4.044,7.945
20050119,004651,1300990,34.901493,-121.182038,14.880,33.056,4.026,7.887
20050119,004721,1301019,34.901776,-121.181428,14.875,33.056,4.026,7.825
20050119,004750,1301049,34.901995,-121.180953,14.863,33.056,4.044,7.849
20050119,004820,1301079,34.902240,-121.180550,14.877,33.045,4.080,7.027
20050119,004851,1301110,34.902520,-121.180058,14.867,33.052,4.008,6.985
20050119,004921,1301140,34.902786,-121.179488,14.858,33.055,4.080,7.757
20050119,004950,1301168,34.903066,-121.178822,14.872,33.046,3.956,7.491
20050119,005020,1301199,34.903425,-121.178045,14.870,33.045,4.044,7.604
20050119,005050,1301229,34.903831,-121.177205,14.882,33.043,4.008,7.412
20050119,005120,1301259,34.904296,-121.176233,14.885,33.044,3.991,7.575
20050119,005151,1301290,34.904820,-121.175083,14.891,33.043,3.885,7.233
20050119,005221,1301320,34.905305,-121.173902,14.884,33.050,3.956,7.423
20050119,005251,1301349,34.905910,-121.172540,14.870,33.057,3.956,7.406
20050119,005321,1301379,34.906491,-121.171250,14.854,33.056,3.938,7.328
20050119,005350,1301409,34.907095,-121.169968,14.841,33.057,3.867,7.175
20050119,005421,1301440,34.907770,-121.168502,14.837,33.049,3.762,6.948
20050119,005451,1301470,34.908456,-121.167010,14.839,33.050,3.676,6.752
20050119,005521,1301500,34.909138,-121.165508,14.804,33.065,3.711,6.802
20050119,005550,1301529,34.909786,-121.164057,14.776,33.063,3.867,7.047
20050119,005621,1301559,34.910501,-121.162500,14.786,33.043,3.641,6.607
20050119,005651,1301589,34.911168,-121.161040,14.769,33.058,3.780,6.824
20050119,005721,1301620,34.911886,-121.159458,14.754,33.055,3.641,6.553
20050119,005751,1301650,34.912578,-121.157940,14.743,33.050,3.623,6.506
20050119,005821,1301680,34.913250,-121.156468,14.738,33.052,3.555,6.358
20050119,005851,1301709,34.913963,-121.154907,14.672,33.077,3.780,6.724
20050119,005921,1301739,34.914656,-121.153395,14.684,33.043,3.676,6.530
20050119,005951,1301769,34.915330,-121.151863,14.694,33.038,3.606,6.371
20050119,010022,1301800,34.916015,-121.150363,14.728,33.022,3.572,6.288
20050119,010051,1301830,34.916705,-121.148827,14.728,33.043,3.555,6.218
20050119,010121,1301859,34.917396,-121.147307,14.692,33.059,3.606,6.298
20050119,010151,1301889,34.918078,-121.145773,14.691,33.049,3.606,6.264
20050119,010221,1301919,34.918765,-121.144255,14.671,33.051,3.658,6.326
20050119,010252,1301950,34.919435,-121.142715,14.724,33.023,3.606,6.218
20050119,010321,1301980,34.920105,-121.141193,14.735,33.024,3.658,6.286
20050119,010351,1302010,34.920775,-121.139657,14.746,33.031,3.641,6.222
20050119,010421,1302039,34.921436,-121.138120,14.738,33.039,3.693,6.295
20050119,010452,1302071,34.922105,-121.136597,14.720,33.050,3.641,6.161
20050119,010522,1302100,34.922816,-121.135037,14.734,33.037,3.435,5.780
20050119,010552,1302130,34.923461,-121.133553,14.758,33.028,3.316,5.556
20050119,010622,1302160,34.924155,-121.131973,14.770,33.034,3.132,5.276
20050119,010652,1302191,34.924823,-121.130440,14.752,33.049,3.132,5.265
20050119,010721,1302219,34.925470,-121.128958,14.751,33.046,3.017,5.042
20050119,010751,1302249,34.926143,-121.127437,14.761,33.039,2.902,4.831
20050119,010822,1302280,34.926843,-121.125877,14.730,33.063,2.918,4.783
20050119,010852,1302310,34.927498,-121.124340,14.720,33.051,2.951,4.882
20050119,010922,1302340,34.928165,-121.122880,14.723,33.047,2.951,4.820
20050119,010952,1302371,34.928851,-121.121303,14.700,33.057,2.984,4.867
20050119,011022,1302401,34.929540,-121.119783,14.704,33.049,3.199,5.151
20050119,011052,1302431,34.930213,-121.118267,14.704,33.050,3.435,5.545
20050119,011122,1302460,34.930900,-121.116750,14.683,33.061,3.538,5.653
20050119,011153,1302492,34.931588,-121.115238,14.666,33.061,3.641,5.799
20050119,011223,1302521,34.932301,-121.113680,14.682,33.044,3.797,6.037
20050119,011252,1302551,34.932945,-121.112193,14.684,33.052,3.676,5.852
20050119,011323,1302581,34.933631,-121.110682,14.666,33.064,3.762,5.966
20050119,011352,1302610,34.934311,-121.109150,14.641,33.073,3.833,6.057
20050119,011423,1302642,34.934988,-121.107625,14.628,33.069,3.727,5.910
20050119,011453,1302672,34.935700,-121.106055,14.602,33.072,3.867,6.122
20050119,011522,1302701,34.936330,-121.104570,14.591,33.072,3.693,5.827
20050119,011553,1302731,34.937028,-121.102968,14.559,33.083,3.903,6.147
20050119,011623,1302761,34.937700,-121.101435,14.554,33.067,3.867,6.088
20050119,011654,1302792,34.938375,-121.099877,14.565,33.061,3.745,5.889
20050119,011723,1302822,34.939060,-121.098342,14.565,33.067,3.572,5.612
20050119,011753,1302851,34.939725,-121.096772,14.561,33.069,3.469,5.448
20050119,011823,1302881,34.940423,-121.095210,14.527,33.083,3.555,5.571
20050119,011853,1302911,34.941113,-121.093667,14.515,33.080,3.555,5.567
20050119,011923,1302941,34.941803,-121.092073,14.569,33.054,3.316,5.202
20050119,011953,1302972,34.942501,-121.090495,14.663,33.047,3.166,4.974
20050119,012023,1303002,34.943210,-121.088915,14.710,33.087,3.316,5.195
20050119,012053,1303031,34.943923,-121.087327,14.689,33.137,3.367,5.269
20050119,012124,1303063,34.944625,-121.085753,14.659,33.146,3.503,5.470
20050119,012153,1303091,34.945340,-121.084155,14.662,33.134,3.503,5.468
20050119,012224,1303122,34.946090,-121.082532,14.636,33.146,3.503,5.465
20050119,012253,1303152,34.946798,-121.081007,14.620,33.143,3.503,5.463
20050119,012323,1303182,34.947506,-121.079415,14.597,33.145,3.452,5.383
20050119,012353,1303211,34.948230,-121.077827,14.585,33.142,3.486,5.432
20050119,012424,1303243,34.948953,-121.076242,14.584,33.136,3.452,5.379
20050119,012453,1303271,34.949671,-121.074650,14.584,33.131,3.435,5.352
20050119,012523,1303302,34.950390,-121.073063,14.572,33.136,3.435,5.351
20050119,012553,1303332,34.951108,-121.071477,14.577,33.132,3.300,5.146
20050119,012623,1303361,34.951821,-121.069910,14.584,33.126,3.300,5.145
20050119,012653,1303391,34.952531,-121.068338,14.597,33.123,3.166,4.943
20050119,012724,1303423,34.953228,-121.066772,14.590,33.129,3.166,4.943
20050119,012754,1303452,34.953958,-121.065158,14.624,33.111,3.116,4.867
20050119,012823,1303482,34.954636,-121.063647,14.674,33.091,3.017,4.719
20050119,012853,1303512,34.955343,-121.062105,14.678,33.115,3.017,4.718
20050119,012924,1303543,34.956055,-121.060542,14.677,33.125,3.000,4.693
20050119,012954,1303573,34.956775,-121.058928,14.675,33.128,2.951,4.619
20050119,013023,1303601,34.957451,-121.057417,14.669,33.129,2.951,4.618
20050119,013053,1303632,34.958146,-121.055855,14.664,33.133,2.984,4.667
20050119,013124,1303662,34.958875,-121.054247,14.669,33.126,3.000,4.690
20050119,013154,1303692,34.959546,-121.052730,14.664,33.130,2.934,4.593
20050119,013224,1303723,34.960270,-121.051100,14.651,33.135,2.934,4.592
20050119,013254,1303753,34.960953,-121.049610,14.649,33.128,2.886,4.520
20050119,013324,1303782,34.961686,-121.047975,14.641,33.133,2.934,4.591
20050119,013354,1303812,34.962386,-121.046410,14.646,33.125,2.870,4.495
20050119,013425,1303844,34.963100,-121.044830,14.641,33.127,2.918,4.566
20050119,013454,1303873,34.963801,-121.043258,14.666,33.115,2.951,4.614
20050119,013525,1303903,34.964505,-121.041672,14.674,33.119,2.967,4.639
20050119,013554,1303933,34.965216,-121.040098,14.674,33.125,2.967,4.639
20050119,013625,1303964,34.965923,-121.038515,14.665,33.132,3.000,4.687
20050119,013655,1303994,34.966651,-121.036878,14.655,33.136,2.934,4.589
20050119,013724,1304022,34.967336,-121.035342,14.645,33.136,2.951,4.613
20050119,013755,1304053,34.968063,-121.033697,14.631,33.137,2.951,4.613
20050119,013825,1304083,34.968776,-121.032113,14.622,33.136,2.934,4.589
20050119,013855,1304113,34.969483,-121.030523,14.619,33.130,2.984,4.662
20050119,013926,1304144,34.970171,-121.028938,14.649,33.108,3.049,4.758
20050119,013956,1304174,34.970876,-121.027350,14.692,33.107,3.232,5.030
20050119,014025,1304203,34.971568,-121.025775,14.708,33.116,3.149,4.906
20050119,014056,1304235,34.972275,-121.024187,14.708,33.126,3.249,5.055
20050119,014125,1304263,34.972970,-121.022608,14.697,33.138,3.199,4.980
20050119,014155,1304294,34.973665,-121.021023,14.710,33.124,3.215,5.005
20050119,014226,1304324,34.974351,-121.019437,14.747,33.109,3.215,5.005
20050119,014256,1304354,34.975058,-121.017800,14.759,33.125,3.300,5.130
20050119,014326,1304385,34.975756,-121.016227,14.722,33.152,3.283,5.105
20050119,014355,1304413,34.976426,-121.014678,14.728,33.134,3.182,4.954
20050119,014426,1304444,34.977143,-121.013048,14.687,33.158,3.116,4.856
20050119,014456,1304474,34.977833,-121.011452,14.673,33.144,3.132,4.881
20050119,014526,1304504,34.978516,-121.009853,14.672,33.148,3.199,4.979
20050119,014555,1304533,34.979186,-121.008325,14.668,33.139,3.182,4.954
20050119,014626,1304565,34.979896,-121.006667,14.674,33.131,3.166,4.931
20050119,014657,1304595,34.980583,-121.005055,14.657,33.147,3.232,5.029
20050119,014726,1304624,34.981290,-121.003465,14.648,33.146,3.266,5.079
20050119,014757,1304656,34.981965,-121.001850,14.660,33.130,3.283,5.105
20050119,014827,1304685,34.982660,-121.000252,14.696,33.115,3.182,4.954
20050119,014856,1304715,34.983363,-120.998635,14.719,33.115,3.249,5.054
20050119,014927,1304745,34.984053,-120.997028,14.737,33.127,3.182,4.954
20050119,014956,1304775,34.984740,-120.995410,14.707,33.148,3.182,4.954
20050119,015026,1304804,34.985441,-120.993810,14.674,33.154,3.199,4.979
20050119,015056,1304834,34.986135,-120.992181,14.677,33.139,3.099,4.831
20050119,015126,1304864,34.986823,-120.990575,14.685,33.132,3.132,4.880
20050119,015157,1304895,34.987521,-120.988951,14.703,33.125,3.116,4.856
20050119,015227,1304925,34.988205,-120.987325,14.697,33.138,3.082,4.806
20050119,015257,1304956,34.988911,-120.985731,14.684,33.143,3.132,4.881
20050119,015326,1304984,34.989610,-120.984083,14.684,33.137,3.199,4.979
20050119,015357,1305016,34.990300,-120.982481,14.699,33.128,3.099,4.831
20050119,015427,1305045,34.990970,-120.980850,14.694,33.134,3.116,4.856
20050119,015457,1305075,34.991678,-120.979185,14.692,33.140,2.984,4.660
20050119,015526,1305105,34.992331,-120.977631,14.690,33.138,3.017,4.709
20050119,015557,1305136,34.993038,-120.975961,14.669,33.149,3.049,4.757
20050119,015627,1305166,34.993690,-120.974400,14.656,33.150,3.049,4.757
20050119,015657,1305195,34.994380,-120.972738,14.656,33.135,3.182,4.954
20050119,015726,1305225,34.995040,-120.971186,14.679,33.125,3.116,4.856
20050119,015757,1305255,34.995693,-120.969555,14.644,33.152,3.066,4.782
20050119,015827,1305286,34.996376,-120.967941,14.607,33.161,3.099,4.831
20050119,015857,1305316,34.997035,-120.966320,14.605,33.144,3.132,4.881
20050119,015927,1305346,34.997736,-120.964653,14.611,33.136,3.149,4.906
20050119,015957,1305375,34.998363,-120.963071,14.602,33.140,3.182,4.954
20050119,020026,1305405,34.999033,-120.961446,14.587,33.146,3.266,5.080
20050119,020057,1305435,34.999708,-120.959771,14.630,33.115,3.199,4.979
20050119,020127,1305466,35.000373,-120.958156,14.669,33.110,3.199,4.979
20050119,020156,1305494,35.001013,-120.956596,14.681,33.123,3.066,4.782
20050119,020227,1305526,35.001678,-120.954898,14.679,33.137,3.066,4.782
20050119,020257,1305555,35.002345,-120.953288,14.666,33.145,3.017,4.710
20050119,020326,1305585,35.002958,-120.951698,14.646,33.154,3.099,4.831
20050119,020357,1305615,35.003642,-120.950021,14.608,33.159,3.066,4.782
20050119,020427,1305646,35.004263,-120.948446,14.571,33.172,3.199,4.979
20050119,020457,1305676,35.004902,-120.946796,14.560,33.148,3.249,5.054
20050119,020527,1305705,35.005573,-120.945098,14.600,33.126,3.199,4.979
20050119,020557,1305735,35.006200,-120.943463,14.606,33.137,3.232,5.029
20050119,020627,1305765,35.006830,-120.941838,14.615,33.132,3.215,5.004
20050119,020657,1305796,35.007470,-120.940198,14.641,33.130,3.215,5.004
20050119,020727,1305826,35.008105,-120.938550,14.601,33.162,3.486,5.408
20050119,020757,1305856,35.008738,-120.936920,14.563,33.163,3.711,5.746
20050119,020827,1305885,35.009367,-120.935268,14.504,33.187,3.833,5.930
20050119,020857,1305915,35.010002,-120.933645,14.474,33.175,4.044,6.251
20050119,020927,1305945,35.010620,-120.931998,14.435,33.169,4.098,6.333
20050119,020957,1305976,35.011280,-120.930381,14.405,33.156,4.477,6.913
20050119,021027,1306006,35.012180,-120.929000,14.366,33.171,4.313,6.662
20050119,021058,1306037,35.013070,-120.927571,14.348,33.154,4.496,6.942
20050119,021127,1306065,35.014032,-120.926228,14.382,33.123,6.002,9.305
20050119,021158,1306097,35.015023,-120.924876,14.530,33.033,5.187,8.016
20050119,021228,1306126,35.016032,-120.923656,14.574,33.104,5.149,7.956
20050119,021257,1306156,35.016960,-120.922388,14.288,33.295,5.187,8.016
20050119,021328,1306186,35.017913,-120.921141,14.112,33.274,3.745,5.798
20050119,021358,1306217,35.018465,-120.920361,14.391,33.013,4.496,6.941
20050119,021428,1306247,35.018883,-120.919816,14.520,33.067,4.717,7.284
20050119,021457,1306275,35.019182,-120.919490,14.558,33.096,4.295,6.634
20050119,021528,1306306,35.019438,-120.919245,14.459,33.192,3.974,6.144
20050119,021558,1306336,35.019642,-120.919085,14.408,33.182,3.956,6.117
20050119,021628,1306366,35.019817,-120.918933,14.381,33.172,4.008,6.197
20050119,021657,1306395,35.019923,-120.918778,14.383,33.143,3.920,6.063
20050119,021727,1306425,35.020013,-120.918635,14.384,33.127,3.974,6.144
20050119,021758,1306456,35.020073,-120.918498,14.391,33.108,4.008,6.197
20050119,021827,1306486,35.020115,-120.918390,14.373,33.125,4.008,6.197
20050119,021858,1306516,35.020127,-120.918238,14.376,33.103,3.762,5.824
20050119,021927,1306545,35.020127,-120.918118,14.355,33.126,3.867,5.982
20050119,021958,1306577,35.020145,-120.917996,14.348,33.131,3.885,6.009
20050119,022028,1306607,35.020215,-120.917873,14.333,33.140,3.867,5.983
20050119,022058,1306636,35.020352,-120.917761,14.394,33.096,3.850,5.957
20050119,022127,1306666,35.020468,-120.917691,14.449,33.101,3.850,5.957
20050119,022158,1306696,35.020563,-120.917593,14.447,33.132,3.867,5.983
20050119,022228,1306727,35.020608,-120.917493,14.452,33.138,3.745,5.797
20050119,022258,1306757,35.020647,-120.917390,14.484,33.126,3.727,5.771
20050119,022329,1306787,35.020683,-120.917303,14.487,33.132,3.745,5.798
20050119,022357,1306816,35.020712,-120.917211,14.495,33.135,3.658,5.667
20050119,022428,1306846,35.020740,-120.917096,14.497,33.144,3.641,5.641
20050119,022459,1306877,35.020752,-120.916993,14.487,33.150,3.658,5.667
20050119,022528,1306907,35.020765,-120.916846,14.490,33.144,3.780,5.850
20050119,022558,1306937,35.020765,-120.916761,14.485,33.147,3.658,5.667
20050119,022629,1306968,35.020760,-120.916655,14.516,33.127,3.623,5.615
20050119,022659,1306998,35.020775,-120.916521,14.534,33.127,3.727,5.771
20050119,022728,1307026,35.020793,-120.916418,14.540,33.131,3.641,5.641
20050119,022759,1307057,35.020818,-120.916306,14.551,33.135,3.693,5.719
20050119,022829,1307087,35.020840,-120.916208,14.562,33.134,3.606,5.589
20050119,022859,1307117,35.020842,-120.916111,14.556,33.144,3.658,5.667
20050119,022929,1307148,35.020845,-120.916006,14.553,33.144,3.676,5.693
20050119,022958,1307176,35.020842,-120.915930,14.541,33.150,3.711,5.746
20050119,023029,1307207,35.020853,-120.915843,14.540,33.144,3.658,5.667
20050119,023059,1307237,35.020870,-120.915805,14.540,33.146,3.606,5.589
20050119,023129,1307267,35.020897,-120.915770,14.540,33.145,3.641,5.641
20050119,023159,1307298,35.020925,-120.915768,14.534,33.149,3.658,5.667
20050119,023228,1307326,35.020968,-120.915801,14.523,33.152,3.623,5.615
20050119,023259,1307358,35.021023,-120.915821,14.471,33.178,3.658,5.667
20050119,023329,1307387,35.021092,-120.915825,14.487,33.144,3.641,5.641
20050119,023359,1307417,35.021153,-120.915805,14.515,33.134,3.727,5.771
20050119,023430,1307449,35.021200,-120.915765,14.510,33.140,3.693,5.720
20050119,023500,1307478,35.021212,-120.915673,14.508,33.149,3.641,5.641
20050119,023530,1307508,35.021175,-120.915576,14.507,33.146,3.555,5.512
20050119,023600,1307538,35.021158,-120.915500,14.501,33.144,3.641,5.641
20050119,023630,1307569,35.021155,-120.915485,14.469,33.169,3.589,5.562
20050119,023659,1307597,35.021168,-120.915480,14.268,33.265,3.641,5.641
20050119,023730,1307628,35.021168,-120.915500,14.209,33.204,3.658,5.667
20050119,023800,1307658,35.021165,-120.915508,14.316,33.092,3.623,5.615
20050119,023830,1307688,35.021147,-120.915521,14.300,33.148,3.693,5.720
20050119,023900,1307719,35.021137,-120.915546,14.319,33.137,3.658,5.667
20050119,023930,1307749,35.021128,-120.915571,14.338,33.131,3.641,5.641
20050119,024000,1307779,35.021118,-120.915578,14.346,33.138,3.641,5.641
20050119,024030,1307808,35.021105,-120.915566,14.293,33.172,3.641,5.641
20050119,024100,1307838,35.021097,-120.915543,14.249,33.175,3.711,5.746
20050119,024130,1307868,35.021102,-120.915515,14.279,33.139,3.745,5.798
20050119,024200,1307899,35.021100,-120.915468,14.280,33.148,3.711,5.746
20050119,024230,1307929,35.021097,-120.915408,14.335,33.114,3.658,5.667
20050119,024300,1307958,35.021097,-120.915353,14.399,33.093,3.606,5.589
20050119,024330,1307988,35.021132,-120.915321,14.413,33.133,3.435,5.333
20050119,024401,1308020,35.021178,-120.915338,14.388,33.142,3.589,5.562